User: anonymous   Login
Location: Arbon
(43.0005°N, 0.7472°E)
Time: 06:04:45
(UTC+00:00)
Language:

Vanguard 2 Rocket - Orbit

View from above orbital plane
View from above orbital plane
View from above satellite
View from above satellite

Ground track
Ground track

The orbit data is extracted from the following two-line orbital elements,

1 00012U 59001B   21216.37867459 -.00000068  00000-0 -34166-4 0  9999
2 00012  32.9014 346.0963 1665086  87.0278 291.8729 11.44383879327287
Epoch (UTC): 04 August 2021 09:05:17
Eccentricity: 0.1665086
inclination: 32.9014°
perigee height: 555 km
apogee height: 3325 km
right ascension of ascending node: 346.0963°
argument of perigee: 87.0278°
revolutions per day: 11.44383879
mean anomaly at epoch: 291.8729°
orbit number at epoch: 32728

The dashed part of the orbit path shows where the satellite is in the earth's shadow,  

DLR